DW1009 Weather Reports


Display with metric or nautical units.
time (UTC)temp
F
wind
direction
speed
MPH
gust
MPH
rain 1hr
in
rain 24hr
in
rain mn
in
humidity
%
barometer
mb
20260831061135 72 197 2.0 4.0 0.00 0.00 0.00 87 1009.7
20260831060134 72 236 2.0 5.0 0.00 0.00 0.00 89 1009.5
20260831055133 72 208 2.0 5.0 0.00 0.00 0.00 90 1009.7
20260831053133 72 190 1.0 4.0 0.00 0.00 0.00 89 1009.6
20260831052134 72 223 0.0 5.0 0.00 0.00 0.00 89 1009.6
20260831051133 72 265 0.0 2.0 0.00 0.00 0.00 89 1009.6
20260831050134 72 196 0.0 3.0 0.00 0.00 0.00 89 1009.6
20260831045134 72 306 1.0 4.0 0.00 0.00 0.00 89 1009.6
20260831044134 72 15 2.0 3.0 0.00 0.00 0.00 89 1009.6
20260831043134 72 241 1.0 4.0 0.00 0.00 0.00 89 1009.7
20260831042133 72 327 1.0 4.0 0.00 0.00 0.00 89 1009.6
20260831040133 73 355 1.0 6.0 0.00 0.00 0.00 88 1009.2
20260831035134 73 330 2.0 6.0 0.00 0.00 0.00 88 1008.9
20260831034134 73 288 1.0 4.0 0.00 0.00 0.00 87 1008.8
20260831033133 73 348 1.0 6.0 0.00 0.00 0.00 86 1008.7
20260831032134 73 268 4.0 4.0 0.00 0.00 0.00 85 1008.5
20260831025134 74 292 1.0 5.0 0.00 0.00 0.00 82 1008.4
20260831023134 74 329 5.0 6.0 0.00 0.00 0.00 76 1008.5
20260831022134 74 298 1.0 6.0 0.00 0.00 0.00 76 1008.6
20260831021134 74 240 1.0 6.0 0.00 0.00 0.00 78 1008.7
20260831020133 74 315 3.0 9.0 0.00 0.00 0.00 78 1008.4
20260831015134 75 286 3.0 7.0 0.00 0.00 0.00 76 1008.4
20260831014133 75 270 4.0 8.0 0.00 0.00 0.00 77 1008.3
20260831013134 75 344 2.0 8.0 0.00 0.00 0.00 78 1008.3
20260831012133 75 299 3.0 9.0 0.00 0.00 0.00 79 1008.4
20260831011133 75 267 7.0 10.0 0.00 0.00 0.00 80 1008.4
20260831010133 76 341 2.0 10.0 0.00 0.00 0.00 80 1008.6
20260831005134 76 303 4.0 10.0 0.00 0.00 0.00 81 1008.4
20260831004134 77 276 6.0 11.0 0.00 0.00 0.00 80 1008.5
20260831003133 78 286 3.0 8.0 0.00 0.00 0.00 80 1008.3
20260831002134 77 228 4.0 11.0 0.00 0.00 0.00 81 1008.4
20260831001134 78 251 4.0 12.0 0.00 0.00 0.00 81 1008.3
20260830235133 79 56 4.0 10.0 0.00 0.00 0.00 79 1008.4
20260830233133 79 261 4.0 10.0 0.00 0.00 0.00 80 1008.4
20260830232133 79 286 3.0 12.0 0.00 0.00 0.00 80 1008.4
20260830231133 80 294 3.0 9.0 0.00 0.00 0.00 80 1008.5
20260830225133 79 217 3.0 10.0 0.00 0.00 0.00 81 1008.5
20260830224133 79 289 8.0 10.0 0.00 0.00 0.00 79 1008.6
20260830223133 79 320 3.0 11.0 0.00 0.00 0.00 80 1008.6
20260830222134 79 284 3.0 11.0 0.00 0.00 0.00 79 1008.9
20260830221133 79 297 2.0 11.0 0.00 0.00 0.00 79 1009.2
20260830220133 79 327 2.0 10.0 0.00 0.00 0.00 79 1009.1
20260830215133 80 284 3.0 10.0 0.00 0.00 0.00 79 1009.2
20260830214133 80 299 2.0 10.0 0.00 0.00 0.00 78 1009.4
20260830212133 81 285 3.0 10.0 0.00 0.00 0.00 77 1009.9
20260830211133 81 290 3.0 10.0 0.00 0.00 0.00 77 1009.9
20260830205133 82 272 2.0 10.0 0.00 0.00 0.00 77 1010.0
20260830204133 82 254 2.0 8.0 0.00 0.00 0.00 76 1010.0
20260830203133 82 249 3.0 10.0 0.00 0.00 0.00 76 1010.1
20260830201133 81 263 2.0 11.0 0.00 0.00 0.00 77 1010.0
20260830194134 81 234 5.0 10.0 0.00 0.00 0.00 76 1010.0
20260830193133 81 275 2.0 9.0 0.00 0.00 0.00 77 1010.1
20260830192133 80 227 7.0 9.0 0.00 0.00 0.00 77 1010.1
20260830191133 81 310 4.0 7.0 0.00 0.00 0.00 76 1010.2
20260830185132 81 307 1.0 10.0 0.00 0.00 0.00 76 1010.4
20260830184133 81 258 2.0 8.0 0.00 0.00 0.00 76 1010.5
20260830183133 81 267 4.0 6.0 0.00 0.00 0.00 76 1010.5
20260830182133 80 321 1.0 8.0 0.00 0.00 0.00 76 1010.4
20260830181133 80 250 3.0 8.0 0.00 0.00 0.00 77 1010.4
20260830180133 79 286 2.0 8.0 0.00 0.00 0.00 77 1010.3
20260830175133 79 204 1.0 7.0 0.00 0.00 0.00 77 1010.2
20260830174133 79 270 7.0 7.0 0.00 0.00 0.00 76 1010.3
20260830173133 79 254 2.0 6.0 0.00 0.00 0.00 76 1010.3
20260830172133 79 286 2.0 5.0 0.00 0.00 0.00 76 1010.2
20260830171132 79 233 5.0 6.0 0.00 0.00 0.00 77 1010.2
20260830170133 78 255 2.0 6.0 0.00 0.00 0.00 78 1010.1
20260830164133 78 299 2.0 7.0 0.00 0.00 0.00 77 1010.1
20260830162133 78 245 1.0 4.0 0.00 0.00 0.00 77 1010.2
20260830161133 78 229 1.0 4.0 0.00 0.00 0.00 79 1010.1
20260830160133 78 271 1.0 4.0 0.00 0.00 0.00 76 1010.0
20260830155133 79 198 0.0 2.0 0.00 0.00 0.00 76 1010.0
20260830154132 78 225 0.0 2.0 0.00 0.00 0.00 78 1010.0
20260830153132 77 97 1.0 2.0 0.00 0.00 0.00 80 1010.0
20260830152132 76 355 1.0 2.0 0.00 0.00 0.00 82 1010.1
20260830151133 75 110 0.0 2.0 0.00 0.00 0.00 84 1010.0
20260830150132 74 26 0.0 2.0 0.00 0.00 0.00 85 1009.9
20260830143133 70 197 0.0 0.0 0.00 0.00 0.00 93 1009.8
20260830142132 69 197 0.0 2.0 0.00 0.00 0.00 93 1009.9
20260830141132 68 197 0.0 0.0 0.00 0.00 0.00 93 1009.8
20260830140133 68 197 0.0 2.0 0.00 0.00 0.00 93 1009.7
20260830135132 68 197 0.0 0.0 0.00 0.00 0.00 93 1009.6
20260830134132 68 197 0.0 0.0 0.00 0.00 0.00 93 1009.6
20260830133133 68 197 0.0 0.0 0.00 0.00 0.00 92 1009.5
20260830132132 68 197 0.0 0.0 0.00 0.00 0.00 92 1009.2
20260830130132 69 197 0.0 0.0 0.00 0.00 0.00 91 1009.0
20260830125132 69 197 0.0 0.0 0.00 0.00 0.00 91 1009.0
20260830123132 70 197 0.0 0.0 0.00 0.00 0.00 90 1008.9
20260830122132 70 197 0.0 0.0 0.00 0.00 0.00 89 1008.9
20260830121132 70 197 0.0 0.0 0.00 0.00 0.00 89 1008.9
20260830120132 71 197 0.0 0.0 0.00 0.00 0.00 88 1008.8
20260830115132 71 197 0.0 0.0 0.00 0.00 0.00 88 1008.7
20260830114132 71 197 0.0 1.0 0.00 0.00 0.00 87 1008.7
20260830113132 72 197 0.0 1.0 0.00 0.00 0.00 87 1008.7
20260830111132 72 130 0.0 2.0 0.00 0.00 0.00 87 1008.7
20260830110132 72 238 0.0 2.0 0.00 0.00 0.00 87 1008.7
20260830105132 72 209 0.0 1.0 0.00 0.00 0.00 87 1008.7
20260830104132 72 209 1.0 2.0 0.00 0.00 0.00 87 1008.7
20260830103132 72 207 1.0 2.0 0.00 0.00 0.00 87 1008.8
20260830102132 72 247 1.0 2.0 0.00 0.00 0.00 87 1008.8
20260830101133 72 217 0.0 2.0 0.00 0.00 0.00 87 1008.7
20260830100132 72 221 0.0 3.0 0.00 0.00 0.00 88 1008.8
20260830095132 72 174 0.0 2.0 0.00 0.00 0.00 88 1008.8
20260830094132 72 231 0.0 2.0 0.00 0.00 0.00 87 1008.7
20260830093132 72 231 0.0 3.0 0.00 0.00 0.00 87 1008.7
20260830092132 72 221 2.0 3.0 0.00 0.00 0.00 88 1008.7
20260830091132 72 209 2.0 5.0 0.00 0.00 0.00 89 1008.7
20260830090132 72 211 2.0 3.0 0.00 0.00 0.00 89 1008.7
20260830083132 73 220 0.0 2.0 0.00 0.00 0.00 89 1008.7
20260830082132 73 204 1.0 3.0 0.00 0.00 0.00 89 1008.6
20260830081131 73 259 2.0 4.0 0.00 0.00 0.00 89 1008.9
20260830080131 73 239 2.0 4.0 0.00 0.00 0.00 89 1008.6
20260830075132 73 144 1.0 5.0 0.00 0.00 0.00 89 1008.7
20260830074132 73 228 3.0 6.0 0.00 0.00 0.00 89 1008.6
20260830072131 73 244 2.0 6.0 0.00 0.00 0.00 88 1008.7
20260830070132 74 185 2.0 6.0 0.00 0.00 0.00 86 1008.6
20260830065131 74 180 2.0 4.0 0.00 0.00 0.00 86 1008.5
20260830064132 73 167 1.0 4.0 0.00 0.00 0.00 87 1008.5
20260830063132 73 215 4.0 6.0 0.00 0.00 0.00 88 1008.5